Regional Weather Roundup
Issued by NWS

Home | Current Version | Previous Version | Text Only | Print | Product List | Glossary Off
Versions: 1 2 3 4 5 6 7 8 9 10 11 12 13 14 15 16 17 18 19 20 21 22 23 24 25 26 27 28 29 30 31 32 33 34 35 36 37 38 39 40 41 42 43 44 45 46 47 48 49 50

000
ASUS43 KLOT 290210
RWRIL

ILLINOIS REGIONAL WEATHER ROUNDUP
NATIONAL WEATHER SERVICE CHICAGO/ROMEOVILLE IL
900 PM CDT MON JUL 28 2014

NOTE: "FAIR" INDICATES FEW OR NO CLOUDS BELOW 12,000 FEET WITH NO
SIGNIFICANT WEATHER AND/OR OBSTRUCTIONS TO VISIBILITY.

* THESE STATIONS ARE NOT UNDER NWS QUALITY CONTROL. THEY ALSO MAY NOT
  REPORT WEATHER SUCH AS PRECIPITATION OR FOG.

ILZ001-002-007-009-015-016-024-290300-
NORTHWEST ILLINOIS

CITY           SKY/WX    TMP DP  RH WIND       PRES   REMARKS
MOLINE         CLEAR     61  53  75 CALM      30.11S
STERLING*      CLEAR     63  54  72 NW5       30.10S
SAVANNA*       CLEAR     67  54  63 W5        30.10S
$$

ILZ003-004-008-010-011-017-018-290300-
NORTH CENTRAL ILLINOIS

CITY           SKY/WX    TMP DP  RH WIND       PRES   REMARKS
ROCKFORD       PTCLDY    63  53  70 W5        30.10S
FREEPORT*      CLEAR     61  55  79 W5        30.12S
ROCHELLE*      CLEAR     62  54  73 W6        30.10R
DE KALB*       CLEAR     60  52  74 W7        30.09S
PERU*          CLEAR     61  54  76 W6        30.10S
$$

ILZ005-006-012>014-019>023-290300-
NORTHEAST ILLINOIS

CITY           SKY/WX    TMP DP  RH WIND       PRES   REMARKS
CHICAGO-OHARE  PTCLDY    64  48  56 E5        30.07R
CHICAGO-MIDWAY PTCLDY    65  51  60 E6        30.07R
AURORA         CLEAR     60  54  80 W5        30.08S
LANSING*       MOCLDY    60  50  69 CALM      30.08S
JOLIET*        CLOUDY    66  50  55 CALM      30.09R
WAUKEGAN       CLOUDY    60  50  69 S5        30.06S
DUPAGE AIRPORT CLOUDY    66  52  60 W6        30.07R
KANKAKEE*      CLEAR     58  54  84 CALM      30.09S
WHEELING       PTCLDY    62  50  64 SE5       30.08S
MORRIS*        CLEAR     63  55  77 W3        30.08S
ROMEOVILLE*    CLOUDY    65  52  61 W5        30.08R
NORTHERLY ISL    N/A     61  50  67 NE2         N/A
$$

LMZ740>746-290300-
SOUTHERN LAKE MICHIGAN

STATION/POSITION SKY/WX   TEMP    WIND        PRES    VSBY  WAVE
                          AIR SEA DIR/SP/G                  HT/PER
                          (F)     (DEG/KT/KT) (MB)    (MI)  (FT/S)
SOUTHERN BUOY              60 60   40/  6/  6 1017.7S         3/ 5
WAUKEGAN HARBOR            60     170/  4/  4   N/A
HARRISON CRIB              61      50/  1/  2   N/A
BURNHAM HARBOR             61      30/  1/  5   N/A
CALUMET HARBOR             61     340/  1/  2 1017.2S
MICHIGAN CITY              63     360/ 13/ 15   N/A
MICHIGAN CITY 6N           64 67   10/ 10/ 14   N/A           6/ 7
ST. JOSEPH                 61 66   10/  6/ 10   N/A           5/ 7
$$

ILZ025>027-034>036-040-047-049-050-058-095>099-290300-
WEST-CENTRAL ILLINOIS

CITY           SKY/WX    TMP DP  RH WIND       PRES   REMARKS
QUINCY         CLEAR     64  53  67 CALM      30.12F
GALESBURG*     CLEAR     61  57  84 CALM      30.12S
MACOMB*        CLEAR     61  56  84 CALM      30.14S
JACKSONVILLE*  CLEAR     62  57  82 CALM      30.13S
PITTSFIELD*    CLEAR     64  55  72 N3        30.13S
$$

ILZ028>032-037-038-041>044-048-051>054-059>061-290300-
CENTRAL ILLINOIS

CITY           SKY/WX    TMP DP  RH WIND       PRES   REMARKS
PONTIAC        CLEAR     61  55  82 W3        30.10R
DECATUR        PTCLDY    63  53  70 N8        30.10S
PEORIA         CLEAR     63  54  72 CALM      30.11S
LACON*         CLEAR     59  54  83 CALM      30.10S
LINCOLN*       CLEAR     62  56  78 CALM      30.08F
SPRINGFIELD    CLEAR     62  57  83 N3        30.12R
TAYLORVILLE    MOCLDY    59  54  82 N6        30.10S
$$

ILZ033-039-045-046-055>057-062-063-290300-
EAST-CENTRAL ILLINOIS

CITY           SKY/WX    TMP DP  RH WIND       PRES   REMARKS
CHAMPAIGN      MOCLDY    62  53  72 CALM      30.10S
DANVILLE*      CLEAR     55  52  92 CALM      30.06S
RANTOUL*       CLEAR     62  51  65 W5        30.11R
MATTOON        CLEAR     60  51  72 N3        30.09R
PARIS*         CLEAR     55  53  91 CALM      30.10S
$$

ILZ079-100>102-290300-
SOUTHWEST ILLINOIS

CITY           SKY/WX    TMP DP  RH WIND       PRES   REMARKS
ALTON          PTCLDY    66  55  68 CALM      30.11S
BELLEVILLE     CLEAR     67  55  66 N6        30.10R
CAHOKIA*       CLEAR     69  54  58 N8        30.10S
SPARTA*        MOCLDY    66  54  63 N5        30.10S
$$

ILZ064>066-069>071-074>076-080>082-084>086-088>090-092>094-290300-
SOUTH-CENTRAL ILLINOIS

CITY           SKY/WX    TMP DP  RH WIND       PRES   REMARKS
CARBONDALE     CLOUDY    71  55  56 N9        30.08R
CAIRO*         CLEAR     73  61  66 N7        30.06R
EFFINGHAM*     CLEAR     64  50  59 N3        30.09S
MARION         CLOUDY    72  57  60 N6        30.08S
MT. VERNON     CLEAR     66  52  59 N3        30.09S
CENTRALIA*     CLEAR     63  52  67 N5        30.09S
SALEM*         CLEAR    N/A N/A N/A N5        30.10S
METROPOLIS*    CLEAR     71  56  61 N3        30.05R
$$

ILZ067-068-072-073-078-083-087-091-290300-
SOUTHEAST ILLINOIS

CITY           SKY/WX    TMP DP  RH WIND       PRES   REMARKS
LAWRENCEVILLE  CLEAR     65  55  70 N10       30.08R
FLORA*         CLEAR     63  53  71 N6        30.09S
FAIRFIELD*     CLEAR     64  57  77 N3        30.08R
HARRISBURG*    MOCLDY    68  57  69 N5        30.08S
ROBINSON*      CLEAR     64  52  65 N6        30.09R
CARMI*         CLEAR     66  57  72 N6        30.07R
$$

ABBREVIATIONS USED IN REMARKS
   TC - TEMPERATURE IN CELSIUS
  WCI - WIND CHILL INDEX
   HX - HEAT INDEX
  VSB - VISIBILITY
$$



USA.gov is the U.S. government's official web portal to all federal, state and local government web resources and services.